Flag for Canada Weather past 2 weeks in Ottawa, Ontario, Canada

Now
0 °F

Clear.


Feels Like: -10 °F
Forecast: -9 / 8 °F
Wind: 5 mph from Northwest

Location: Ottawa Int'L. Ont.

Current Time: Jan 26, 2015 at 1:42:01 AM

Latest Report: Jan 26, 2015 at 1:00 AM


Visibility: 15 mi

Pressure: 30.17 "Hg

Humidity: 65%

Dew point: -9 °F

Location of OttawaLocation

Historic Weather in Ottawa — Graph

°F

Ottawa temperature yesterday

Maximum temperature yesterday: 28 °F (at 12:00 AM)
Minimum temperature yesterday: 1 °F (at 8:00 AM)
Average temperature yesterday: 8 °F

Past Weeks' High & Low Weather Summary

 TemperatureHumidityPressure
High39 °F (Jan 18, 2:00 PM)100% (Jan 19, 12:00 AM)30.86 "Hg (Jan 19, 12:00 AM)
Low-15 °F (Jan 14, 4:00 AM)50% (Jan 13, 2:00 PM)29.34 "Hg (Jan 24, 11:00 PM)
Average10 °F75%30.09 "Hg
* Reported Midnight between Jan 10 and Jan 11 — Midnight between Jan 25 and Jan 26, Ottawa, Weather by CustomWeather, © 2014

Note: Actual official high and low records may vary slightly from our data, if they occured in-between our weather recording intervals... More about our weather records

Advertising

Ottawa weather history for previous 24 hours

 ConditionsComfort  
Time TempWeatherWind HumidityBarometerVisibility
12:00 AM
Jan 26
1 °FClear.7 mph65%30.17 "Hg15 mi
11:00 PM
Jan 25
3 °FClear.10 mph66%30.16 "Hg15 mi
10:00 PM3 °FClear.9 mph60%30.15 "Hg15 mi
9:00 PM1 °FClear.7 mph65%30.14 "Hg15 mi
8:00 PM3 °FClear.7 mph66%30.13 "Hg15 mi
7:00 PM3 °FClear.9 mph66%30.10 "Hg15 mi
6:00 PM3 °FClear.8 mph66%30.06 "Hg15 mi
5:00 PM7 °FClear.10 mph56%30.01 "Hg15 mi
4:00 PM9 °FSunny.10 mph56%29.98 "Hg15 mi
3:00 PM9 °FPassing clouds.12 mph56%29.94 "Hg15 mi
2:00 PM9 °FLow level haze.12 mph56%29.93 "Hg15 mi
1:00 PM7 °FLow level haze.12 mph56%29.92 "Hg15 mi
12:00 PM7 °FLow level haze.14 mph56%29.91 "Hg15 mi
11:00 AM5 °FScattered clouds.17 mph60%29.90 "Hg15 mi
10:00 AM3 °FScattered clouds.16 mph66%29.88 "Hg15 mi
9:00 AM1 °FLow level haze.16 mph71%29.85 "Hg15 mi
8:00 AM1 °FLow level haze.18 mph71%29.81 "Hg15 mi
7:00 AM3 °FLow level haze.21 mph72%29.76 "Hg15 mi
6:00 AM5 °FPassing clouds.21 mph72%29.71 "Hg15 mi
5:00 AM7 °FPassing clouds.16 mph72%29.66 "Hg15 mi
4:00 AM9 °FPassing clouds.30 mph66%29.58 "Hg15 mi
3:00 AM16 °FLight snow. Passing clouds.18 mph67%29.53 "Hg15 mi
2:00 AM19 °FLight snow. Mostly cloudy.23 mph79%29.46 "Hg5 mi
1:00 AM23 °FLight snow. Mostly cloudy.22 mph74%29.41 "Hg10 mi
Weather by CustomWeather, © 2014

See weather overviewHow to use our weather pages